CAPE
0 0 0 0 0 0 0 0 0 0 0 0 0 0 0 0 0 0 0 72 632 892 839 1204 1530 1591 1748 1743 1940 2303 2758 3048 3345 3477 3488 3570 3600 3405 3516 3081 2854 2456 1522 1442
0 0 0 0 0 0 0 0 0 0 0 0 0 0 0 0 0 0 0 0 320 1226 1332 1484 1715 1964 1924 2025 2324 2474 2827 3024 3249 3439 3507 3442 3499 3337 3452 2780 2228 1938 1598 1450
0 0 0 0 0 0 0 0 0 0 0 0 0 0 0 0 0 0 0 0 83 1094 1826 2121 2052 2231 2146 2366 2553 2858 3046 3159 3384 3663 3916 3665 3426 3174 2743 2324 1820 1628 1559 1372
0 0 0 0 0 0 0 0 0 0 0 0 0 0 0 0 0 0 0 0 2 805 1931 2514 2491 2516 2518 2619 2899 3050 3353 3583 4059 4058 3412 3131 2974 2511 2109 1852 1707 1326 1348 852
0 0 0 0 0 0 0 0 0 0 0 0 0 0 0 0 0 0 0 5 154 457 2072 2485 2632 2799 2806 3032 3356 3616 3739 3895 3236 3052 2695 2429 2269 2287 2083 1705 1676 1313 964 700
0 0 0 0 0 0 0 0 0 0 0 0 0 0 0 0 0 0 0 145 533 1297 2076 2519 2674 2890 3416 3700 3667 3692 3459 2980 2620 2506 2472 2293 2342 2452 2111 1681 1013 812 447 442
0 0 0 0 0 0 0 0 0 0 0 0 0 0 0 240 653 911 1101 1441 1744 1721 2038 2583 3141 3502 3524 3410 3335 3083 2970 2830 2856 2863 2635 2449 2405 2165 1315 1009 797 472 402 426
0 0 0 0 0 0 0 0 0 0 2 0 0 0 563 1263 1538 1554 1777 1908 1998 2231 3028 3347 3256 3218 2978 2775 2380 2265 2436 2628 2707 2700 2507 2378 1768 1377 1147 920 837 537 464 247
0 0 0 0 0 0 0 592 401 783 509 185 26 827 1089 1412 1570 1851 2022 2317 2650 2810 2872 2715 2268 2242 2226 2262 2285 2336 2612 2698 2707 2257 2044 1767 1403 1325 1119 968 822 562 431 253
0 0 0 0 0 0 20 760 583 620 616 272 297 995 1304 1590 1779 1894 1991 2021 2043 2043 1971 2162 1920 1961 2147 2114 2250 2031 2001 2081 2346 2185 1945 1833 1574 1325 1100 895 704 375 221 341
1 0 0 0 0 0 0 284 741 742 674 677 967 1423 1698 1853 1817 1702 1503 1218 830 580 599 779 1070 1388 1780 2093 2137 2137 2095 1983 2091 1646 1712 1197 215 210 605 8 70 276 367 356
22 12 1 0 0 0 0 317 782 646 808 1013 1345 1448 861 424 115 6 0 4 21 32 39 57 83 254 594 938 1242 1321 1324 1523 1789 1756 1287 866 124 0 0 0 0 0 0 6
75 144 148 151 103 0 12 657 856 838 904 735 407 69 8 0 0 0 0 0 18 14 31 53 93 130 158 257 411 498 387 856 735 715 813 576 436 74 2 0 0 0 0 0
0 7 99 205 227 618 663 807 666 647 312 59 21 4 0 0 1 5 5 5 7 5 7 13 26 54 89 175 306 391 266 51 43 578 356 303 156 46 0 0 1 0 0 0
0 26 68 149 344 705 782 513 155 52 34 30 5 0 0 0 0 0 0 0 0 0 0 0 6 15 54 116 47 73 45 19 53 7 38 165 211 167 122 84 8 0 0 0
28 63 176 166 621 653 295 41 52 26 5 0 0 0 0 0 0 0 0 0 0 0 0 0 0 0 0 1 1 0 5 1 0 6 9 15 27 35 78 80 0 0 0 0
0 97 313 325 635 570 91 59 0 0 0 11 0 0 0 0 0 0 0 0 0 0 0 0 0 0 0 4 1 13 9 0 0 16 27 65 32 49 122 112 0 0 0 0
0 11 322 308 204 93 24 0 0 0 0 0 0 0 0 0 0 0 0 0 0 0 2 4 0 0 0 0 0 1 2 36 1 11 53 26 49 107 122 142 32 2 0 0
22 50 199 170 77 13 3 9 13 8 6 1 0 0 0 0 0 0 0 0 0 7 42 1 0 0 0 0 0 2 8 13 35 14 53 43 58 80 128 213 87 12 0 0
123 114 129 79 85 68 64 47 43 31 14 3 0 0 0 0 0 0 0 0 9 19 5 0 6 14 0 0 0 9 25 27 32 36 43 45 74 95 127 130 48 1 0 0
0 2 6 9 11 10 6 0 0 0 0 1 12 12 24 8 0 1 2 22 201 24 28 3 28 36 27 0 0 3 27 31 41 39 25 36 95 158 128 83 16 4 0 0
0 0 0 1 1 0 0 0 0 0 0 0 0 0 5 16 15 14 54 88 94 3 4 32 20 2 7 0 13 14 7 0 4 5 19 27 193 240 100 55 21 0 0 0
43 16 0 1 0 2 1 1 2 4 6 15 18 19 6 7 5 11 30 112 47 10 56 13 0 0 0 0 15 6 6 4 1 7 22 47 204 199 44 18 9 13 0 0
81 86 71 28 6 8 3 3 1 7 14 11 7 9 19 17 18 12 12 0 1 0 2 0 0 0 0 9 23 31 12 23 12 5 7 15 37 29 59 35 18 12 0 0
1 0 0 0 0 9 9 4 7 12 17 19 13 8 5 11 18 40 29 28 0 7 0 0 0 0 0 8 9 25 30 12 21 11 26 31 14 5 0 0 0 0 0 0
19 15 5 5 1 0 0 1 14 16 16 11 8 9 18 12 28 42 39 5 6 3 0 0 0 0 17 10 7 6 7 0 0 4 6 0 6 13 9 7 6 4 3 4
18 7 8 13 2 0 0 0 0 2 27 20 6 0 1 22 3 20 1 44 37 36 0 0 0 0 14 6 3 9 9 0 0 0 0 4 1 3 12 16 2 0 0 0
CIN
-0 -0 -0 -0 -0 -0 -0 -0 -0 -0 -0 -0 -0 -0 -0 -0 -0 -0 -0 -55 -49 -81 -72 -86 -127 -148 -137 -132 -159 -194 -198 -175 -155 -126 -109 -84 -60 -46 -23 -28 -13 -10 -45 -28
-0 -0 -0 -0 -0 -0 -0 -0 -0 -0 -0 -0 -0 -0 -0 -0 -0 -0 -0 -0 -45 -65 -109 -142 -197 -203 -216 -199 -202 -227 -205 -191 -172 -139 -106 -91 -59 -47 -10 -17 -52 -38 -39 -51
-0 -0 -0 -0 -0 -0 -0 -0 -0 -0 -0 -0 -0 -0 -0 -0 -0 -0 -0 -0 -44 -43 -107 -175 -214 -251 -253 -256 -256 -235 -199 -154 -140 -106 -72 -61 -44 -48 -54 -53 -75 -68 -56 -35
-0 -0 -0 -0 -0 -0 -0 -0 -0 -0 -0 -0 -0 -0 -0 -0 -0 -0 -0 -0 -27 -14 -85 -171 -220 -242 -248 -259 -251 -217 -161 -116 -92 -81 -114 -106 -94 -124 -144 -141 -117 -118 -48 -64
-0 -0 -0 -0 -0 -0 -0 -0 -0 -0 -0 -0 -0 -0 -0 -0 -0 -0 -0 -81 -59 -32 -85 -167 -209 -254 -235 -233 -190 -145 -117 -102 -171 -175 -199 -204 -211 -172 -146 -132 -92 -129 -75 -54
-0 -0 -0 -0 -0 -0 -0 -0 -0 -0 -0 -0 -0 -0 -0 -0 -0 -0 -0 -105 -103 -56 -122 -201 -226 -232 -208 -177 -154 -124 -140 -207 -240 -228 -203 -201 -157 -116 -121 -131 -176 -122 -134 -89
-0 -0 -0 -0 -0 -0 -0 -0 -0 -0 -0 -0 -0 -0 -0 -25 -60 -86 -109 -119 -111 -110 -155 -199 -189 -114 -114 -123 -128 -139 -123 -122 -91 -86 -99 -97 -55 -37 -83 -78 -135 -177 -106 -58
-0 -0 -0 -0 -0 -0 -0 -0 -0 -0 -0 -0 -0 -0 -32 -85 -132 -129 -131 -159 -168 -174 -150 -116 -101 -109 -94 -116 -184 -199 -116 -73 -52 -46 -57 -85 -86 -51 -32 -7 -19 -49 -26 -32
-0 -0 -0 -0 -0 -0 -0 -21 -30 -17 -42 -34 -48 -32 -77 -120 -160 -177 -170 -176 -172 -182 -155 -134 -164 -184 -214 -196 -174 -116 -85 -80 -62 -173 -78 -26 -58 -34 -30 -30 -9 -15 -4 -3
-0 -0 -0 -0 -0 -0 -21 -51 -65 -46 -59 -60 -37 -87 -148 -171 -202 -213 -235 -232 -205 -213 -254 -200 -217 -207 -189 -180 -136 -179 -199 -124 -43 -41 -23 -10 -21 -22 -60 -33 -4 -46 -13 -1
-3 -0 -0 -0 -0 -0 -0 -44 -90 -75 -73 -82 -116 -155 -187 -185 -186 -232 -295 -347 -421 -498 -522 -481 -399 -297 -172 -115 -112 -74 -56 -58 -38 -60 -7 -42 -310 -74 -56 -89 -49 -32 -3 -4
-6 -3 -1 -0 -0 -0 -0 -71 -91 -86 -115 -147 -161 -212 -308 -403 -495 -166 -0 -199 -687 -682 -709 -700 -647 -567 -436 -311 -206 -131 -85 -18 -1 -0 -9 -36 -123 -0 -0 -0 -0 -0 -0 -11
-11 -19 -21 -47 -14 -0 -37 -91 -106 -107 -151 -234 -276 -382 -457 -0 -0 -0 -0 -84 -624 -674 -660 -635 -583 -580 -563 -494 -354 -283 -245 -188 -183 -117 -18 -58 -46 -67 -124 -0 -0 -0 -0 -0
-0 -32 -49 -53 -15 -16 -54 -91 -113 -140 -225 -283 -357 -397 -0 -0 -120 -509 -534 -482 -626 -622 -629 -637 -617 -560 -499 -418 -314 -248 -289 -267 -288 -76 -101 -43 -17 -71 -0 -3 -10 -0 -0 -0
-3 -62 -88 -61 -8 -16 -16 -88 -178 -241 -303 -364 -378 -0 -0 -0 -0 -0 -0 -0 -0 -0 -0 -0 -614 -483 -374 -339 -316 -305 -344 -159 -53 -80 -148 -35 -9 -1 -7 -25 -7 -0 -0 -0
-66 -96 -28 -29 -2 -3 -39 -183 -196 -269 -138 -0 -0 -0 -0 -0 -0 -0 -0 -0 -0 -0 -0 -0 -0 -0 -0 -151 -60 -0 -46 -24 -0 -33 -10 -3 -6 -4 -8 -3 -0 -0 -0 -0
-7 -112 -8 -3 -2 -2 -66 -107 -0 -0 -0 -357 -0 -0 -0 -0 -0 -0 -0 -0 -0 -0 -0 -0 -0 -0 -0 -1 -0 -3 -2 -0 -0 -17 -6 -61 -17 -1 -1 -1 -0 -0 -0 -0
-0 -207 -15 -3 -14 -49 -69 -0 -0 -0 -0 -0 -0 -0 -0 -0 -0 -0 -0 -0 -0 -0 -1 -2 -0 -0 -0 -0 -0 -0 -0 -6 -1 -1 -3 -12 -3 -14 -14 -9 -1 -5 -0 -0
-128 -85 -8 -9 -10 -52 -3 -91 -141 -278 -305 -124 -0 -0 -0 -0 -0 -0 -0 -0 -0 -0 -150 -0 -0 -0 -0 -0 -0 -1 -2 -1 -2 -1 -2 -14 -3 -2 -0 -1 -1 -5 -0 -0
-6 -8 -24 -20 -45 -65 -99 -147 -194 -238 -246 -215 -0 -0 -0 -0 -0 -0 -0 -0 -1 -3 -18 -0 -0 -2 -0 -0 -0 -2 -1 -2 -3 -2 -3 -2 -11 -1 -3 -3 -2 -3 -0 -0
-0 -24 -49 -88 -121 -0 -1 -0 -0 -0 -0 -265 -256 -226 -206 -203 -0 -0 -1 -11 -34 -25 -4 -5 -1 -3 -2 -0 -0 -2 -2 -3 -1 -3 -2 -2 -1 -1 -1 -6 -9 -2 -0 -0
-0 -0 -0 -0 -0 -0 -0 -0 -0 -0 -0 -0 -0 -0 -137 -174 -157 -0 -19 -9 -37 -15 -3 -3 -3 -4 -6 -0 -3 -6 -3 -0 -14 -14 -4 -8 -6 -2 -3 -2 -10 -0 -0 -0
-9 -14 -0 -0 -0 -0 -0 -0 -1 -0 -0 -216 -207 -188 -164 -1 -0 -0 -12 -4 -19 -23 -5 -16 -0 -0 -0 -0 -10 -9 -5 -8 -3 -5 -6 -7 -2 -3 -8 -6 -13 -14 -0 -0
-4 -1 -1 -2 -13 -18 -0 -1 -0 -1 -201 -204 -134 -13 -2 -1 -1 -4 -8 -0 -1 -0 -6 -0 -0 -0 -0 -18 -5 -10 -12 -6 -16 -10 -19 -10 -2 -2 -20 -1 -4 -17 -0 -0
-12 -0 -0 -0 -0 -0 -0 -2 -1 -1 -1 -1 -5 -12 -4 -2 -1 -1 -1 -1 -0 -4 -0 -0 -0 -0 -0 -2 -2 -3 -14 -9 -6 -4 -2 -4 -2 -1 -0 -0 -0 -0 -0 -0
-22 -25 -22 -5 -0 -0 -0 -1 -2 -3 -1 -1 -1 -0 -2 -4 -3 -3 -1 -40 -40 -6 -0 -0 -0 -0 -1 -3 -4 -3 -5 -0 -0 -1 -2 -3 -3 -6 -15 -3 -2 -2 -2 -1
-5 -17 -3 -1 -2 -0 -0 -0 -1 -0 -2 -3 -4 -3 -29 -2 -39 -17 -3 -2 -2 -2 -0 -0 -0 -0 -1 -3 -3 -2 -2 -0 -0 -0 -1 -2 -1 -2 -2 -2 -2 -0 -0 -0
Wind_Speed
43 41 33 28 34 39 42 43 45 34 32 33 25 25 19 24 24 23 23 18 19 15 13 10 8 10 10 10 9 8 8 8 8 6 6 5 6 7 6 8 7 6 7 8
45 36 42 40 36 35 40 39 39 44 43 32 29 30 30 29 27 26 23 23 19 17 14 12 10 9 8 8 8 7 6 6 5 4 3 4 4 4 5 5 6 6 9 10
41 32 33 46 39 34 31 35 34 39 39 35 38 29 24 28 28 23 22 23 17 14 13 13 11 10 9 7 6 6 5 5 3 2 2 3 4 5 6 6 7 9 9 12
33 29 35 37 23 28 38 36 32 32 32 32 33 34 29 21 29 31 28 25 25 13 11 11 10 10 9 8 7 6 5 4 2 1 2 3 4 5 6 7 9 11 10 7
35 35 34 38 21 21 23 31 31 34 34 31 30 28 34 33 31 32 26 31 28 19 11 11 10 8 8 7 7 6 5 3 2 1 2 3 5 5 6 8 9 10 8 10
35 40 34 30 26 23 25 37 22 25 34 31 26 34 33 25 28 30 29 23 23 15 12 11 10 8 8 8 7 6 4 3 3 2 3 6 6 6 8 9 9 10 11 9
41 42 44 28 28 24 27 27 20 15 21 20 20 25 29 24 19 20 19 17 16 14 12 9 9 8 8 7 5 4 2 2 3 4 6 8 9 10 11 10 10 10 9 10
45 47 48 25 31 35 29 21 25 23 18 17 16 18 16 16 16 16 14 12 11 8 8 9 8 7 7 6 4 4 6 5 6 9 12 9 11 13 12 13 14 14 11 10
47 49 29 30 35 26 24 19 24 21 25 22 23 9 10 12 11 10 7 6 7 6 5 5 6 5 4 5 2 2 4 8 12 11 10 9 9 9 11 13 17 16 17 12
44 51 46 42 29 35 25 26 27 25 25 21 14 8 8 6 4 3 2 3 2 2 3 4 3 3 2 4 5 7 8 10 8 10 8 8 9 9 13 19 9 9 8 8
47 47 42 41 47 40 35 28 30 26 20 14 8 5 2 2 1 1 1 2 2 0 1 1 2 3 5 6 8 9 10 10 10 11 11 12 16 19 15 17 15 14 6 9
42 34 39 41 37 37 31 31 29 22 13 6 2 2 3 5 5 5 4 4 4 3 2 3 4 5 6 8 9 10 12 13 13 13 15 17 18 19 21 17 15 15 12 11
32 28 32 35 35 37 30 26 21 12 6 2 2 4 4 5 5 5 5 4 3 3 4 6 7 8 10 10 9 11 14 15 16 21 20 19 13 15 15 15 15 13 10 9
35 35 35 31 31 24 24 18 13 9 7 4 3 2 1 0 2 2 2 3 4 5 6 8 10 12 13 14 15 17 19 20 19 15 14 11 12 11 10 8 9 10 11 9
43 40 38 33 30 24 20 18 15 11 9 6 6 4 3 2 3 4 5 6 7 7 9 11 12 13 14 15 16 17 16 12 9 11 12 10 8 7 5 7 8 9 8 9
39 38 36 35 24 20 16 15 14 12 10 8 6 4 4 4 4 6 5 7 8 9 10 11 13 14 14 15 14 15 17 17 15 15 14 12 12 11 10 7 7 8 6 6
41 39 37 29 24 20 19 15 13 11 9 8 6 4 3 3 5 6 7 8 8 9 10 11 12 13 14 14 15 14 13 13 13 13 9 8 7 8 8 6 5 7 6 7
38 39 28 17 17 17 15 13 11 9 8 5 4 1 2 4 6 7 8 8 8 8 9 11 12 14 15 15 16 15 14 10 10 10 10 11 8 6 6 5 5 5 7 8
40 34 20 17 15 13 12 10 7 6 5 3 2 3 4 5 7 8 8 8 7 8 10 12 13 15 15 17 16 13 13 13 12 12 13 12 10 10 8 7 6 5 7 7
18 18 15 12 11 10 9 7 7 5 4 5 5 5 7 8 8 8 8 8 12 9 7 10 13 15 15 15 14 14 12 12 12 11 13 11 12 9 7 6 5 5 5 6
14 15 13 11 9 8 8 7 6 6 8 8 9 9 9 9 10 10 8 9 10 10 11 11 14 13 12 14 11 11 11 11 13 14 14 10 10 9 7 5 6 5 6 7
11 11 10 10 8 5 5 6 7 8 9 10 11 10 11 12 12 12 15 17 9 8 11 12 13 14 14 11 12 13 13 13 14 14 13 11 8 6 7 7 7 6 7 8
6 7 6 4 4 3 4 6 8 8 10 11 12 12 14 13 14 14 13 13 10 9 13 12 13 13 12 10 11 12 11 12 12 13 13 9 7 6 5 6 7 7 7 9
5 3 3 2 3 5 6 8 9 10 11 11 12 13 15 14 13 16 13 12 10 10 11 12 12 9 9 12 9 8 10 10 12 10 11 9 8 8 7 7 7 8 7 8
2 3 6 5 6 6 7 8 9 10 11 12 12 13 14 15 13 13 11 9 8 11 11 9 7 8 10 10 10 10 9 10 8 8 9 9 9 8 9 9 8 8 8 7
9 9 8 9 9 10 11 11 11 11 12 11 12 13 13 13 12 11 10 8 7 9 7 5 5 8 8 9 10 9 9 11 9 8 8 7 7 7 8 7 7 7 6 6
12 10 11 12 14 15 13 12 12 12 12 11 12 13 12 12 12 12 11 8 7 6 4 4 7 10 10 10 9 9 9 8 13 9 7 7 6 6 6 6 6 6 6 6
Wind_Direction
248 254 252 250 253 252 251 253 254 263 263 264 269 274 279 275 284 295 293 303 298 293 277 262 233 217 217 214 210 210 219 221 225 241 243 253 288 298 299 307 310 297 313 323
250 254 254 257 254 254 254 253 256 259 262 269 270 272 271 275 281 289 297 296 294 287 277 261 253 237 231 219 217 206 211 215 214 224 261 298 314 314 328 333 341 333 321 325
252 252 258 255 249 255 254 257 257 259 263 266 267 279 276 274 277 287 294 298 297 285 278 271 254 245 232 224 220 211 210 215 211 224 315 338 339 344 344 352 347 337 336 330
252 249 248 243 248 243 259 260 261 265 268 268 271 272 277 276 278 283 288 292 295 293 274 269 257 244 241 229 222 212 212 206 215 276 330 341 352 350 343 338 335 336 337 349
248 249 258 257 285 229 232 221 264 266 269 271 274 279 272 274 280 284 285 284 289 293 280 266 251 234 214 209 206 209 207 231 232 266 326 332 331 329 335 340 341 354 354 347
245 249 232 258 259 278 276 267 257 267 268 270 271 268 274 281 280 281 285 286 288 284 282 267 249 227 205 198 192 204 224 236 253 270 309 320 327 327 329 332 339 341 345 353
245 251 253 264 264 268 267 279 280 273 277 269 252 268 282 285 290 292 293 291 288 282 277 266 244 236 228 225 231 237 242 287 302 314 327 331 334 335 337 340 353 353 346 356
244 247 250 263 264 260 278 275 276 286 293 290 279 279 279 287 294 295 293 296 288 274 281 275 252 238 241 251 258 283 301 317 327 324 320 337 331 333 336 334 340 339 341 355
245 245 261 267 259 275 272 283 279 289 285 289 287 298 294 293 292 294 303 305 294 268 277 279 261 245 255 279 283 338 329 323 319 329 333 343 348 346 342 333 330 329 325 335
249 246 251 254 263 260 274 272 272 279 284 290 295 299 306 313 285 267 315 326 328 244 261 290 298 297 307 309 320 320 325 335 334 339 335 330 335 327 330 323 335 335 334 344
249 251 254 254 253 255 258 266 267 275 286 288 291 298 333 16 50 107 64 23 56 147 288 7 21 350 331 326 330 340 341 341 336 332 329 329 329 328 338 344 331 335 337 346
250 255 253 255 252 248 258 260 260 270 281 288 284 95 75 75 80 95 95 83 78 74 61 23 0 354 345 340 340 341 337 334 332 334 325 323 322 325 333 338 339 349 352 3
263 272 267 260 259 249 253 260 259 244 238 213 110 105 97 84 73 78 78 78 57 29 359 4 348 343 342 346 336 325 322 319 315 310 314 318 314 319 321 334 344 350 352 5
269 268 265 261 257 258 242 241 231 227 227 210 198 224 265 70 80 49 13 9 13 360 348 341 343 335 334 333 328 326 322 317 319 320 325 326 329 329 337 344 351 350 0 13
263 263 260 262 259 250 241 223 212 210 221 226 227 225 224 235 283 297 339 338 348 348 338 333 331 331 329 332 336 328 339 352 4 351 349 347 359 357 356 356 6 8 18 28
264 263 252 252 249 235 215 211 210 211 208 214 215 235 249 268 292 302 347 358 340 335 343 347 339 337 338 331 332 334 336 336 343 348 347 348 353 348 347 1 16 27 47 49
255 251 248 240 233 220 217 204 200 202 202 214 229 227 261 295 307 309 321 339 350 353 350 346 346 346 338 334 332 344 358 357 349 348 5 4 16 14 11 19 36 33 47 66
245 239 239 220 207 193 189 193 199 201 203 192 186 222 296 311 309 312 322 330 337 342 345 340 337 338 339 339 334 342 344 2 3 356 3 356 1 30 32 38 39 40 53 73
231 232 211 199 182 180 183 187 191 186 181 192 232 295 313 323 321 325 327 323 325 330 334 332 336 335 336 334 334 342 342 341 353 349 352 1 356 359 3 8 22 61 57 61
189 180 174 176 180 178 179 183 189 203 246 272 285 299 307 314 324 326 325 323 319 323 343 339 334 334 339 339 335 337 345 345 348 355 354 360 353 3 10 35 51 68 64 60
153 160 162 171 185 195 210 218 236 265 279 285 290 295 302 313 308 313 318 317 324 327 333 336 330 340 345 345 346 343 348 345 345 345 350 359 358 358 6 39 33 47 47 36
165 177 187 197 201 215 248 269 281 286 292 297 297 298 300 301 303 304 307 309 322 321 325 333 334 334 342 348 346 350 347 344 342 341 340 344 2 11 27 47 51 62 66 77
166 177 178 192 211 247 285 294 294 299 305 296 299 301 300 306 306 303 301 313 324 316 321 332 335 342 347 352 359 353 351 347 349 344 348 5 18 28 46 56 59 61 69 89
198 191 220 264 311 311 305 320 322 301 304 312 311 309 309 310 310 310 314 315 320 325 325 340 342 350 356 345 5 23 13 6 357 359 14 18 41 35 54 63 69 84 67 94
103 21 23 10 344 326 309 312 323 326 324 324 319 316 314 318 318 324 326 327 326 324 334 346 1 359 354 5 7 10 16 12 33 32 12 359 32 46 64 68 73 79 92 97
17 11 352 342 340 338 348 331 324 326 327 340 334 332 334 332 335 335 340 341 338 340 359 20 24 4 9 9 4 9 9 359 13 15 15 33 44 66 75 68 70 79 65 53
16 349 352 352 10 356 345 340 343 338 346 350 342 340 339 344 344 333 334 348 341 353 17 12 343 329 340 356 356 358 355 5 322 350 10 21 22 31 25 31 29 38 34 32